Corinth, MS

7:14 PM CST on January 20, 2018 (GMT -0600)
Turner

Weather History for KCRX - November, 2013

Change the Weather History Date:

Sunday, November 3, 2013

  Actual Average Record
Temperature  
Mean Temperature 46 °F -  
Max Temperature 60 °F 68 °F 88 °F (1935)
Min Temperature 33 °F 44 °F 20 °F (1954)
Degree Days  
Heating Degree Days 18    
Moisture  
Dew Point 36 °F    
Average Humidity 69    
Maximum Humidity 100    
Minimum Humidity 34    
Precipitation  
Precipitation 0.00 in - - ()
Sea Level Pressure  
Sea Level Pressure 30.25 in    
Wind  
Wind Speed 2 mph (ENE)    
Max Wind Speed 13 mph    
Max Gust Speed -    
Visibility 8 miles    
Events Fog    
Averages and records for this station are not official NWS values.
T = Trace of Precipitation, MM = Missing Value Source: NWS Daily Summary

Daily Weather History Graph

Daily Weather History Graph

Search for Another Location

Airport or City:

Trip Planner

Search our weather history database for the weather conditions in past years. The results will help you decide how hot, cold, wet, or windy it might be!

Date:

Astronomy

Nov. 03, 2013 Rise Set
Actual Time 6:17 AM CST 4:58 PM CST
Civil Twilight 5:51 AM CST 5:24 PM CST
Nautical Twilight 5:21 AM CST 5:54 PM CST
Astronomical Twilight 4:51 AM CST 6:23 PM CST
Moon 6:20 AM CST (11/3) 5:14 PM CST (11/3)
Length of Visible Light 11h 33m
Length of Day
10h 40m
New Moon, 0% of the Moon is Illuminated
Nov 3
New Moon
Nov 9
First Quarter
Nov 17
Full
Nov 25
Last Quarter
Dec 2
New

Hourly Weather History & Observations

Time (CST) Temp. Windchill Dew Point Humidity Pressure Visibility Wind Dir Wind Speed Gust Speed Precip Events Conditions
3:10 AM 37.4 °F - 35.6 °F 93% 30.22 in 1.5 mi Calm Calm - N/A   Clear
3:30 AM 37.4 °F - 35.6 °F 93% 30.22 in 0.8 mi Calm Calm - N/A   Mist
3:50 AM 37.4 °F - 35.6 °F 93% 30.23 in 3.0 mi Calm Calm - N/A   Clear
4:10 AM 35.6 °F - 35.6 °F 100% 30.23 in 2.5 mi Calm Calm - N/A   Clear
4:30 AM 35.6 °F - 35.6 °F 100% 30.24 in 1.0 mi Calm Calm - N/A   Clear
4:50 AM 35.6 °F - 33.8 °F 93% 30.24 in 0.2 mi Calm Calm - N/A Fog Fog
5:10 AM 35.6 °F 32.8 °F 32.0 °F 87% 30.26 in 0.2 mi WNW 3.5 mph - N/A Fog Fog
5:30 AM 33.8 °F - 32.0 °F 93% 30.26 in 0.5 mi Calm Calm - N/A Fog Fog
5:50 AM 33.8 °F - 32.0 °F 93% 30.26 in 0.5 mi Calm Calm - N/A Fog Fog
6:10 AM 33.8 °F - 32.0 °F 93% 30.28 in 0.5 mi Calm Calm - N/A Fog Fog
6:30 AM 33.8 °F - 32.0 °F 93% 30.29 in 3.0 mi Calm Calm - N/A   Clear
6:50 AM 35.6 °F - 32.0 °F 87% 30.30 in 4.0 mi Calm Calm - N/A   Clear
7:10 AM 37.4 °F - 35.6 °F 93% 30.31 in 4.0 mi Calm Calm - N/A   Clear
7:30 AM 39.2 °F - 37.4 °F 93% 30.32 in 5.0 mi Calm Calm - N/A   Clear
7:50 AM 41.0 °F - 39.2 °F 93% 30.32 in 7.0 mi Calm Calm - N/A   Clear
8:10 AM 42.8 °F - 41.0 °F 93% 30.32 in 10.0 mi Calm Calm - N/A   Clear
8:30 AM 46.4 °F - 41.0 °F 81% 30.33 in 10.0 mi Calm Calm - N/A   Clear
8:50 AM 48.2 °F - 41.0 °F 76% 30.33 in 10.0 mi ENE 3.5 mph - N/A   Clear
9:10 AM 50.0 °F - 41.0 °F 71% 30.32 in 10.0 mi East 6.9 mph - N/A   Clear
9:30 AM 53.6 °F - 37.4 °F 54% 30.32 in 10.0 mi East 9.2 mph - N/A   Clear
9:50 AM 53.6 °F - 35.6 °F 51% 30.31 in 10.0 mi East 12.7 mph - N/A   Clear
10:10 AM 53.6 °F - 35.6 °F 51% 30.31 in 10.0 mi East 8.1 mph - N/A   Clear
10:30 AM 55.4 °F - 35.6 °F 47% 30.32 in 10.0 mi East 8.1 mph - N/A   Clear
10:50 AM 55.4 °F - 35.6 °F 47% 30.31 in 10.0 mi ENE 8.1 mph - N/A   Clear
11:10 AM 57.2 °F - 33.8 °F 41% 30.30 in 10.0 mi NNE 5.8 mph - N/A   Clear
11:30 AM 57.2 °F - 32.0 °F 38% 30.29 in 10.0 mi NE 5.8 mph - N/A   Clear
11:50 AM 57.2 °F - 33.8 °F 41% 30.29 in 10.0 mi East 4.6 mph - N/A   Clear
12:10 PM 57.2 °F - 33.8 °F 41% 30.27 in 10.0 mi NE 6.9 mph - N/A   Clear
12:30 PM 57.2 °F - 32.0 °F 38% 30.26 in 9.0 mi NNE 6.9 mph - N/A   Clear
12:50 PM 59.0 °F - 32.0 °F 36% 30.25 in 10.0 mi NNE 3.5 mph - N/A   Clear
1:10 PM 59.0 °F - 32.0 °F 36% 30.23 in 10.0 mi ENE 10.4 mph - N/A   Clear
1:30 PM 59.0 °F - 32.0 °F 36% 30.22 in 10.0 mi East 5.8 mph - N/A   Clear
1:50 PM 59.0 °F - 32.0 °F 36% 30.22 in 10.0 mi SE 5.8 mph - N/A   Clear
2:10 PM 60.8 °F - 32.0 °F 34% 30.22 in 10.0 mi ESE 4.6 mph - N/A   Clear
2:30 PM 59.0 °F - 32.0 °F 36% 30.22 in 10.0 mi ESE 4.6 mph - N/A   Clear
2:50 PM 60.8 °F - 32.0 °F 34% 30.21 in 10.0 mi ENE 6.9 mph - N/A   Clear
3:10 PM 59.0 °F - 32.0 °F 36% 30.21 in 10.0 mi East 6.9 mph - N/A   Clear
3:30 PM 59.0 °F - 32.0 °F 36% 30.21 in 10.0 mi East 5.8 mph - N/A   Clear
3:50 PM 59.0 °F - 32.0 °F 36% 30.20 in 10.0 mi East 5.8 mph - N/A   Clear
4:10 PM 59.0 °F - 32.0 °F 36% 30.20 in 10.0 mi ESE 6.9 mph - N/A   Clear
4:30 PM 57.2 °F - 33.8 °F 41% 30.19 in 10.0 mi ESE 5.8 mph - N/A   Clear
4:50 PM 55.4 °F - 35.6 °F 47% 30.18 in 10.0 mi ESE 5.8 mph - N/A   Clear
5:10 PM 53.6 °F - 35.6 °F 51% 30.18 in 10.0 mi Calm Calm - N/A   Clear
5:30 PM 50.0 °F - 37.4 °F 62% 30.18 in 10.0 mi Calm Calm - N/A   Clear
5:50 PM 50.0 °F - 37.4 °F 62% 30.19 in 10.0 mi Calm Calm - N/A   Clear
6:10 PM 46.4 °F 45.2 °F 39.2 °F 76% 30.21 in 10.0 mi West 3.5 mph - N/A   Clear
6:30 PM 44.6 °F - 39.2 °F 81% 30.22 in 10.0 mi Calm Calm - N/A   Clear
6:50 PM 44.6 °F - 39.2 °F 81% 30.23 in 10.0 mi Calm Calm - N/A   Clear
7:10 PM 44.6 °F - 39.2 °F 81% 30.22 in 10.0 mi Calm Calm - N/A   Clear
7:30 PM 42.8 °F - 39.2 °F 87% 30.23 in 10.0 mi Calm Calm - N/A   Clear
7:50 PM 42.8 °F - 39.2 °F 87% 30.23 in 10.0 mi Calm Calm - N/A   Clear
8:10 PM 41.0 °F - 37.4 °F 87% 30.23 in 10.0 mi Calm Calm - N/A   Clear
8:30 PM 41.0 °F - 39.2 °F 93% 30.24 in 10.0 mi Calm Calm - N/A   Clear
8:50 PM 41.0 °F - 39.2 °F 93% 30.25 in 10.0 mi Calm Calm - N/A   Clear
9:10 PM 39.2 °F - 37.4 °F 93% 30.25 in 10.0 mi Calm Calm - N/A   Clear
9:30 PM 39.2 °F - 37.4 °F 93% 30.25 in 10.0 mi Calm Calm - N/A   Clear
9:50 PM 39.2 °F - 37.4 °F 93% 30.25 in 10.0 mi Calm Calm - N/A   Clear
10:10 PM 39.2 °F - 37.4 °F 93% 30.25 in 6.0 mi Calm Calm - N/A   Clear
10:30 PM 37.4 °F - 37.4 °F 100% 30.25 in 4.0 mi Calm Calm - N/A   Clear
10:50 PM 37.4 °F - 37.4 °F 100% 30.25 in 3.0 mi Calm Calm - N/A   Clear